Current weather by "City, St" or "zip code"  
 

Current Conditions: South County Airport of Santa Clara County, CA

Fair


75.0 F

Last Updated on Oct 29 2020, 5:35 pm PDT
Humidity: 21%
Wind Speed: NW 6.9 G 17.3 mph
Barometer 30.00 in
Dewpoint: 32.0 F
Visibility: 10.00 mi
Precip: --
Heat Index: NA
Wind Chill: NA
Current conditions at:

South County Airport of Santa Clara County, CA (KE16)

Lat: 37.0815861 Lon: 121.5968056

Local Radar Image active severe weather and emergency alerts image image weather storm and storm spotter reports image weather observation monitoring service image
Local
Radar
Active
Alerts
Storm Reports Obs
Monitoring

Sign-up For Email & Text Message Weather Alert Notification Services



Advertise Here

Observation History for South County Airport of Santa Clara County, CA


Time Wind
(mph)
Vis
(mi)
Weather Precip (in) Temperature (F) Relative
Humidity
Wind
Chill
(F)
Heat
Index
(F)
Pressure
Air Dwpt altimeter
(in)
sea level
(mb)
Rmks
5:35 pm PDT NW 6.9 G 17.3 10.00 Fair -- 75.0 32.0 21% NA NA 30.00 M
4:55 pm PDT NW 9.2 10.00 Fair -- 77.0 32.0 19% NA NA 30.00 M
4:35 pm PDT NW 10.4 10.00 Fair -- 81.0 32.0 17% NA 79 30.00 M
3:55 pm PDT NW 9.2 10.00 Fair -- 81.0 32.0 17% NA 79 29.99 M
2:55 pm PDT NW 5.8 10.00 Fair -- 82.0 30.2 15% NA 80 30.00 M
1:55 pm PDT N 3.5 10.00 Fair -- 81.0 28.4 15% NA 79 30.02 M
12:55 pm PDT NW 5.8 10.00 Fair -- 77.0 30.2 18% NA NA 30.05 M
11:55 am PDT N 0.0 10.00 Fair -- 72.0 32.0 23% NA NA 30.08 M
10:55 am PDT N 0.0 10.00 Fair -- 63.0 32.0 32% NA NA 30.10 M
9:55 am PDT N 0.0 10.00 Fair -- 55.0 32.0 41% NA NA 30.12 M
8:55 am PDT N 0.0 10.00 Fair -- 46.0 32.0 57% NA NA 30.12 M
7:55 am PDT N 0.0 7.00 Fair -- 41.0 32.0 70% NA NA 30.11 M
6:55 am PDT N 0.0 10.00 Overcast -- 41.0 32.0 70% NA NA 30.11 M
5:55 am PDT N 0.0 10.00 Overcast -- 43.0 32.0 66% NA NA 30.10 M
4:55 am PDT N 0.0 10.00 Overcast -- 45.0 32.0 61% NA NA 30.09 M
3:55 am PDT NW 3.5 10.00 Overcast -- 45.0 32.0 61% NA NA 30.10 M
2:55 am PDT N 0.0 10.00 Overcast -- 45.0 32.0 61% NA NA 30.10 M
1:55 am PDT SE 3.5 10.00 Overcast -- 46.0 32.0 57% NA NA 30.11 M
12:55 am PDT N 3.5 10.00 Overcast -- 48.0 32.0 54% NA NA 30.10 M
11:15 pm PDT N 3.5 10.00 Overcast -- 50.0 32.0 50% NA NA 30.10 M
10:55 pm PDT N 3.5 10.00 Overcast -- 50.0 32.0 50% NA NA 30.10 M
9:55 pm PDT N 0.0 10.00 Overcast -- 55.0 32.0 41% NA NA 30.09 M
8:55 pm PDT N 0.0 10.00 Overcast -- 57.0 30.2 36% NA NA 30.07 M
7:55 pm PDT SE 3.5 10.00 Overcast -- 63.0 28.4 27% NA NA 30.07 M

Regional Weather Observation


San Jose, San Jose International Airport, CA (KSJC)

Partly Cloudy
71.0 F

South County Airport of Santa Clara County, CA (KE16)

Fair
75.0 F

Livermore, Livermore Municipal Airport, CA (KLVK)

Smoke
71.0 F

Palo Alto Airport, CA (KPAO)

Clear
73.0 F

Hayward, Hayward Air Terminal, CA (KHWD)

Fair
67.0 F

San Carlos Airport, CA (KSQL)

Clear
70.0 F